TimeCST,TemperatureF,Dew PointF,Humidity,Sea Level PressureIn,VisibilityMPH,Wind Direction,Wind SpeedMPH,Gust SpeedMPH,PrecipitationIn,Events,Conditions,WindDirDegrees,DateUTC
12:10 AM,68.0,62.6,83,30.05,10.0,South,12.7,-,N/A,,Overcast,170,2013-11-06 06:10:00
12:53 AM,66.9,62.1,84,30.05,10.0,SSE,9.2,-,N/A,,Overcast,160,2013-11-06 06:53:00
1:28 AM,66.2,62.6,88,30.05,10.0,SSE,8.1,-,N/A,,Overcast,150,2013-11-06 07:28:00
1:53 AM,66.0,62.1,87,30.03,10.0,SSE,9.2,-,N/A,,Overcast,150,2013-11-06 07:53:00
2:12 AM,66.2,62.6,88,30.03,10.0,SSE,8.1,-,N/A,,Overcast,160,2013-11-06 08:12:00
2:53 AM,66.0,62.1,87,30.03,10.0,SE,8.1,-,N/A,,Overcast,140,2013-11-06 08:53:00
3:53 AM,66.0,63.0,90,30.03,10.0,SSE,8.1,-,N/A,,Overcast,150,2013-11-06 09:53:00
4:53 AM,66.0,63.0,90,30.03,10.0,SSE,5.8,-,0.00,,Overcast,160,2013-11-06 10:53:00
5:07 AM,66.2,62.6,88,30.04,10.0,SSE,5.8,-,N/A,,Overcast,160,2013-11-06 11:07:00
5:53 AM,66.0,63.0,90,30.03,10.0,SSE,5.8,-,N/A,,Overcast,160,2013-11-06 11:53:00
6:53 AM,66.0,63.0,90,30.04,10.0,South,8.1,-,N/A,,Overcast,170,2013-11-06 12:53:00
7:17 AM,66.2,64.4,94,30.05,10.0,South,6.9,-,N/A,,Overcast,170,2013-11-06 13:17:00
7:53 AM,66.9,64.0,90,30.06,4.0,WSW,6.9,-,0.02,Rain,Light Rain,250,2013-11-06 13:53:00
7:57 AM,66.2,64.4,94,30.07,1.5,West,3.5,-,0.05,Rain,Rain,260,2013-11-06 13:57:00
8:06 AM,66.2,64.4,94,30.06,0.8,SSE,15.0,-,0.11,Rain,Heavy Rain,150,2013-11-06 14:06:00
8:10 AM,66.2,64.4,94,30.06,2.0,SSE,12.7,-,0.11,Rain,Light Rain,150,2013-11-06 14:10:00
8:22 AM,66.2,64.4,94,30.07,3.0,South,8.1,-,0.13,Rain,Light Rain,170,2013-11-06 14:22:00
8:32 AM,66.2,64.4,94,30.07,1.8,South,9.2,-,0.17,Rain,Rain,180,2013-11-06 14:32:00
8:41 AM,66.2,64.4,94,30.08,3.0,WSW,4.6,-,0.18,Rain,Light Rain,240,2013-11-06 14:41:00
8:49 AM,66.2,64.4,94,30.09,2.0,West,8.1,-,0.23,Rain,Light Rain,260,2013-11-06 14:49:00
8:53 AM,66.9,64.9,93,30.08,1.0,SSW,8.1,-,0.30,Rain,Heavy Rain,210,2013-11-06 14:53:00
9:00 AM,66.2,66.2,100,30.08,0.5,South,8.1,-,0.13,Fog-Rain,Heavy Rain,190,2013-11-06 15:00:00
9:09 AM,66.2,66.2,100,30.08,2.0,SW,3.5,-,0.15,Rain,Light Rain,220,2013-11-06 15:09:00
9:17 AM,66.2,66.2,100,30.08,5.0,Calm,Calm,-,0.16,Rain,Light Rain,0,2013-11-06 15:17:00
9:31 AM,68.0,66.2,94,30.08,9.0,Variable,6.9,36.8,0.16,Rain,Light Rain,0,2013-11-06 15:31:00
9:53 AM,68.0,66.0,93,30.07,10.0,SE,6.9,-,0.16,,Overcast,140,2013-11-06 15:53:00
10:53 AM,68.0,66.0,93,30.07,2.5,SSE,5.8,-,0.01,Rain,Rain,150,2013-11-06 16:53:00
11:03 AM,69.8,66.2,88,30.08,5.0,South,4.6,-,0.00,Rain,Light Rain,170,2013-11-06 17:03:00
11:51 AM,69.8,66.2,88,30.07,4.0,SSW,10.4,-,0.03,Rain,Rain,210,2013-11-06 17:51:00
11:53 AM,70.0,66.9,90,30.07,3.0,SSW,10.4,-,0.03,Rain,Rain,210,2013-11-06 17:53:00
12:19 PM,69.8,66.2,88,30.07,2.5,SW,9.2,-,0.06,Rain,Rain,220,2013-11-06 18:19:00
12:33 PM,68.0,64.4,88,30.07,1.5,NW,10.4,18.4,0.15,Rain,Heavy Rain,310,2013-11-06 18:33:00
12:40 PM,66.2,64.4,94,30.07,3.0,NW,5.8,-,0.16,Rain,Rain,310,2013-11-06 18:40:00
12:53 PM,66.9,64.9,93,30.06,4.0,WNW,8.1,-,0.18,Rain,Light Rain,290,2013-11-06 18:53:00
1:34 PM,64.4,62.6,94,30.07,10.0,NNW,13.8,21.9,0.02,Rain,Light Rain,330,2013-11-06 19:34:00
1:53 PM,62.1,60.1,93,30.08,10.0,NW,15.0,21.9,0.02,,Overcast,310,2013-11-06 19:53:00
2:53 PM,57.9,55.9,93,30.11,10.0,NW,11.5,21.9,0.00,,Overcast,320,2013-11-06 20:53:00
3:53 PM,55.9,54.0,93,30.13,10.0,NW,12.7,20.7,0.00,Rain,Light Rain,320,2013-11-06 21:53:00
4:53 PM,54.0,52.0,93,30.17,10.0,NW,12.7,19.6,0.00,,Overcast,320,2013-11-06 22:53:00
5:23 PM,53.6,50.0,88,30.18,10.0,NW,10.4,16.1,N/A,,Overcast,320,2013-11-06 23:23:00
5:48 PM,53.6,48.2,82,30.19,10.0,NW,6.9,-,N/A,,Scattered Clouds,310,2013-11-06 23:48:00
5:53 PM,54.0,48.9,83,30.19,10.0,NW,6.9,-,N/A,,Scattered Clouds,320,2013-11-06 23:53:00
6:53 PM,53.1,48.0,83,30.22,10.0,NW,9.2,-,N/A,,Clear,320,2013-11-07 00:53:00
7:53 PM,51.1,46.0,83,30.24,10.0,NW,5.8,-,N/A,,Clear,320,2013-11-07 01:53:00
8:53 PM,50.0,46.0,86,30.27,10.0,NW,8.1,-,N/A,,Clear,320,2013-11-07 02:53:00
9:53 PM,48.0,43.0,83,30.29,10.0,NNW,6.9,-,N/A,,Clear,330,2013-11-07 03:53:00
10:53 PM,46.0,41.0,83,30.31,10.0,NNW,8.1,-,N/A,,Clear,330,2013-11-07 04:53:00
11:53 PM,45.0,39.9,82,30.32,10.0,NNW,6.9,-,N/A,,Clear,340,2013-11-07 05:53:00